Home > Weather > Athens > Past weeks

Flag for U.S.A. Weather for the Past 2 Weeks in Athens, Georgia, U.S.A.

Now
35 °F

Overcast.


Feels Like: 28 °F
Forecast: 30 / 39 °F
Wind: 9 mph from West

Location: Athens Airport

Current Time: Feb 9, 2016 at 7:46:34 AM

Latest Report: Feb 9, 2016 at 6:51 AM


Visibility: 10 mi

Pressure: 29.81 "Hg

Humidity: 59%

Dew point: 22 °F

Location of AthensLocation

Historic Weather in Athens — Graph

°F

Athens Temperature Yesterday

Maximum temperature yesterday: 55 °F (at 2:51 PM)
Minimum temperature yesterday: 36 °F (at 4:51 AM)
Average temperature yesterday: 43 °F

High & Low Weather Summary for the Past Weeks

 TemperatureHumidityPressure
High74 °F (Feb 2, 2:51 PM)100% (Jan 27, 1:51 AM)30.42 "Hg (Jan 27, 1:51 AM)
Low28 °F (Jan 25, 7:51 AM)22% (Feb 5, 1:51 PM)29.70 "Hg (Feb 8, 2:51 PM)
Average49 °F67%30.06 "Hg
* Reported Jan 25 5:51 AM — Feb 9 5:51 AM, Athens, Weather by CustomWeather, © 2016

Note: Actual official high and low records may vary slightly from our data, if they occured in-between our weather recording intervals... More about our weather records

Advertising

Athens Weather History for the Previous 24 Hours

 ConditionsComfort  
Time TempWeatherWind HumidityBarometerVisibility
5:51 AM
Tue, Feb 9
35 °FOvercast.12 mph59%29.79 "Hg10 mi
4:51 AM35 °FOvercast.10 mph67%29.78 "Hg10 mi
3:51 AM35 °FOvercast.8 mph64%29.78 "Hg10 mi
2:51 AM35 °FOvercast.6 mph61%29.78 "Hg10 mi
1:51 AM34 °FOvercast.6 mph64%29.80 "Hg10 mi
12:51 AM36 °FPassing clouds.10 mph57%29.79 "Hg10 mi
11:51 PM
Mon, Feb 8
37 °FClear.17 mph48%29.78 "Hg10 mi
10:51 PM40 °FPassing clouds.16 mph58%29.78 "Hg10 mi
9:51 PM41 °FClear.13 mph49%29.77 "Hg10 mi
8:51 PM41 °FPassing clouds.8 mph45%29.77 "Hg10 mi
7:51 PM43 °FPassing clouds.12 mph42%29.78 "Hg10 mi
6:51 PM45 °FClear.17 mph40%29.76 "Hg10 mi
5:51 PM48 °FPartly sunny.10 mph33%29.74 "Hg10 mi
4:51 PM51 °FPartly sunny.13 mph32%29.72 "Hg10 mi
3:51 PM51 °FPartly sunny.10 mph38%29.71 "Hg10 mi
2:51 PM55 °FBroken clouds.9 mph33%29.70 "Hg10 mi
1:51 PM52 °FScattered clouds.13 mph45%29.72 "Hg10 mi
12:51 PM48 °FMore clouds than sun.9 mph56%29.77 "Hg10 mi
11:51 AM50 °FPartly sunny.8 mph50%29.81 "Hg10 mi
10:51 AM48 °FPassing clouds.7 mph48%29.83 "Hg10 mi
9:51 AM45 °FPassing clouds.N/A51%29.83 "Hg10 mi
8:51 AM41 °FPassing clouds.6 mph55%29.84 "Hg10 mi
7:51 AM36 °FSunny.3 mph62%29.85 "Hg10 mi
Weather by CustomWeather, © 2016

See weather overviewHow to use our weather pages